Regional Weather Roundup
Issued by NWS

Home | Current Version | Previous Version | Graphics & Text | Print | Product List | Glossary On
Versions: 1 2 3 4 5 6 7 8 9 10 11 12 13 14 15 16 17 18 19 20 21 22 23 24 25 26 27 28 29 30 31 32 33 34 35 36 37 38 39 40 41 42 43 44 45 46 47 48 49 50
000
ASUS43 KBIS 290502
RWRND

NORTH DAKOTA REGIONAL WEATHER ROUNDUP
NATIONAL WEATHER SERVICE BISMARCK ND
1200 AM CDT SAT AUG 29 2015

NOTE: "FAIR" INDICATES FEW OR NO CLOUDS BELOW 12,000 FEET WITH NO
SIGNIFICANT WEATHER AND/OR OBSTRUCTIONS TO VISIBILITY.


NDZ001>003-009>011-017-290600-
NORTHWEST NORTH DAKOTA

CITY           SKY/WX    TMP DP  RH WIND       PRES   REMARKS
WILLISTON      CLEAR     62  48  60 CALM      29.92S HAZE
MINOT          CLOUDY    67  62  84 S3        29.89R
MINOT AFB      PTCLDY    65  63  93 S6        29.87S
$$

NDZ018>021-031>035-040>046-290600-
SOUTHWEST NORTH DAKOTA

CITY           SKY/WX    TMP DP  RH WIND       PRES   REMARKS
BISMARCK       CLEAR     69  66  90 SE6       29.92R
DICKINSON      MOCLDY    63  49  60 W3        29.97S
GARRISON         N/A     63  30  28 CALM      29.91S
HETTINGER ARPT CLOUDY    54  50  86 NW3       30.02R FOG
$$

NDZ004>008-012>016-024-026-027-054-290600-
NORTHEAST NORTH DAKOTA

CITY           SKY/WX    TMP DP  RH WIND       PRES   REMARKS
GRAND FORKS    CLEAR     68  66  93 S5        29.87R
GRND FRKS AFB  CLEAR     68  67  95 SW1       29.87S
DEVILS LAKE    CLEAR     66  59  77 CALM      29.89S
$$

NDZ022-023-025-028>030-036>039-047>053-290600-
SOUTHEAST NORTH DAKOTA

CITY           SKY/WX    TMP DP  RH WIND       PRES   REMARKS
FARGO          CLEAR     70  63  78 S16       29.91F
JAMESTOWN      CLEAR     68  66  93 S7        29.91S
$$




USA.gov is the U.S. government's official web portal to all federal, state and local government web resources and services.